SCP
0 0 0 0 0 0 0 0 0 0 0 0 0 0 0 0 0 0 0 0 0 0 0 0 0 0 0 0 0 0 0 0 0 0 0 0 0 0 0 0 0 0 0
0 0 0 0 0 0 0 0 0 0 0 0 0 0 0 0 0 0 0 0 0 0 0 0 0 0 0 0 0 0 0 0 0 0 0 0 0 0 0 0 0 0 0
1 0 0 0 0 0 0 0 0 0 0 0 0 0 0 0 0 0 0 0 0 0 0 0 0 0 0 0 0 0 0 0 0 0 0 0 0 0 0 0 0 0 0
1 1 1 1 1 0 0 0 0 0 0 0 0 0 0 0 0 0 0 0 0 0 0 0 0 0 0 0 0 0 0 0 0 0 0 0 0 0 0 0 0 0 0
1 1 1 1 1 0 0 0 0 0 0 0 0 0 0 0 0 0 0 0 0 0 0 0 0 0 0 0 0 0 0 0 0 0 0 0 0 0 0 0 0 0 0
1 1 1 1 1 1 0 0 0 0 0 0 0 0 0 0 0 0 0 0 0 0 0 0 0 0 0 0 0 0 0 0 0 0 0 0 0 0 0 0 0 0 0
1 1 1 1 1 1 0 0 0 0 0 0 0 0 0 0 0 0 0 0 0 0 0 0 0 0 0 0 0 0 0 0 0 0 0 0 0 0 0 0 0 0 0
1 1 1 1 1 1 0 0 0 0 0 0 0 0 0 0 0 0 0 0 0 0 0 0 0 0 -0 -0 0 0 0 0 0 0 0 0 0 0 0 0 0 0 0
1 1 1 1 1 1 0 0 0 0 0 0 0 0 0 0 0 0 0 0 0 0 0 0 0 0 0 0 0 0 0 0 0 0 0 0 0 0 0 0 0 0 0
1 1 1 1 1 1 0 0 0 0 0 0 0 0 0 0 0 0 0 0 0 0 0 0 0 0 0 0 0 0 0 0 0 0 0 0 0 0 0 0 0 0 0
1 1 1 1 1 1 0 0 0 0 0 0 0 0 -0 -0 -0 -0 0 0 0 0 0 0 0 0 0 0 0 0 0 0 0 0 0 0 0 0 0 0 0 0 0
1 1 1 1 1 0 0 0 0 0 0 0 0 -0 -0 -0 -0 -0 0 0 0 0 0 0 0 0 0 0 0 0 0 0 0 0 0 0 0 0 0 0 0 0 0
1 1 1 1 0 0 0 0 0 0 0 0 -0 -0 -0 -0 -0 0 0 0 0 0 0 0 0 0 0 0 0 0 0 0 0 0 0 0 0 0 0 0 0 0 0
1 1 1 0 0 0 0 0 0 0 0 0 -0 0 0 0 0 0 0 0 0 0 0 0 0 0 0 0 0 0 0 0 0 0 0 0 0 0 0 0 0 0 0
1 1 1 0 0 0 0 0 0 0 0 0 0 0 0 0 0 0 0 0 0 0 0 0 0 0 0 0 0 0 0 0 0 0 0 0 0 0 0 0 0 0 0
1 1 1 1 0 0 0 0 0 0 0 0 0 0 0 0 0 0 0 0 0 0 0 0 0 0 0 0 0 0 0 0 0 0 0 0 0 0 0 0 0 0 0
1 1 1 1 0 0 0 0 0 0 0 0 0 0 0 0 0 0 0 0 0 0 0 0 0 0 0 0 0 0 0 0 0 0 0 0 0 0 0 0 0 0 0
1 1 1 1 1 0 0 0 0 0 0 0 0 0 0 0 0 0 0 0 0 0 0 0 0 0 0 0 0 0 0 0 0 0 0 0 0 0 0 0 0 0 0
1 1 1 1 1 1 0 0 0 0 0 0 0 0 0 0 0 0 0 0 0 0 0 0 0 0 0 0 0 0 0 0 0 0 0 0 0 0 0 0 0 0 0
1 1 1 1 1 1 0 0 0 0 0 0 0 0 0 0 0 0 0 0 0 0 0 0 0 0 0 0 0 0 0 0 0 0 0 0 0 0 0 0 0 0 0
1 1 1 1 1 1 1 0 0 0 0 0 0 0 0 0 0 0 0 0 0 0 0 0 0 0 0 0 0 0 0 0 0 0 0 0 0 0 0 0 0 0 0
1 1 1 1 1 1 0 0 0 0 0 0 0 0 0 0 0 0 0 0 0 0 0 0 0 0 0 0 0 0 0 0 0 0 0 0 0 0 0 0 0 0 0
1 1 1 1 1 0 0 0 0 0 0 0 0 0 0 0 0 0 0 0 0 0 0 0 0 0 0 0 0 0 0 0 0 0 0 0 0 0 0 0 0 0 0
0 0 0 0 0 0 0 0 0 0 0 0 0 0 0 0 0 0 0 0 0 0 0 0 0 0 0 0 0 0 0 0 0 0 0 0 0 0 0 0 0 0 0
0 0 0 0 0 0 0 0 0 0 0 0 0 0 0 0 0 0 0 0 0 0 0 0 0 0 0 0 0 0 0 0 0 0 0 0 0 0 0 0 0 0 0
0 0 0 0 0 0 0 0 0 0 0 0 0 0 0 0 0 0 0 0 0 0 0 0 0 0 0 0 0 0 0 0 0 0 0 0 0 0 0 0 0 0 0
Wind_Speed
10 12 19 19 19 19 19 19 18 18 18 18 18 18 17 17 17 16 15 15 14 14 14 14 13 13 13 13 13 13 13 13 14 14 14 13 12 13 14 15 15 11 15
14 14 19 19 20 19 19 19 18 18 18 17 17 17 17 16 16 15 15 14 14 14 13 13 13 13 13 12 12 12 12 12 13 13 13 11 11 12 13 14 14 10 15
17 14 17 19 19 19 19 19 18 18 17 17 17 16 16 15 15 15 14 14 14 13 13 13 12 12 12 11 11 11 11 11 12 12 11 6 8 12 13 14 15 15 14
17 13 15 20 20 19 19 18 18 18 17 17 16 16 15 15 14 14 14 13 13 13 13 12 11 11 11 10 10 9 9 9 10 10 5 4 6 12 13 14 14 14 14
15 12 16 22 20 20 19 18 18 17 17 16 16 15 15 14 14 14 13 13 12 12 12 11 11 10 10 10 9 8 7 6 8 7 5 5 5 11 13 13 13 13 13
13 11 16 21 20 20 19 18 18 17 17 16 15 15 14 14 13 13 13 12 12 11 11 10 10 9 9 8 8 7 6 6 7 5 5 5 5 10 13 13 13 13 12
13 11 15 21 20 19 19 18 18 17 16 16 15 15 14 13 13 13 12 12 11 11 10 9 9 8 7 7 7 6 6 8 7 5 4 4 5 10 12 13 13 12 12
15 12 13 20 20 19 18 18 17 17 16 15 15 14 14 13 13 12 11 11 11 10 9 8 7 7 6 5 5 6 7 8 8 7 4 4 8 10 12 12 12 12 12
13 12 10 12 15 18 18 17 17 16 15 15 15 14 13 13 12 12 11 11 10 9 8 7 6 5 4 3 4 5 7 9 6 4 6 4 8 11 12 12 12 12 11
11 10 9 9 9 9 11 16 17 16 15 15 14 13 13 12 12 11 10 10 9 8 7 6 5 3 2 2 3 5 8 8 4 4 3 4 10 11 12 12 11 11 11
12 10 10 9 8 8 8 13 13 15 14 13 11 13 10 5 5 6 9 10 9 8 7 5 4 3 1 1 1 3 6 3 4 3 3 7 10 11 11 11 11 11 11
14 11 10 10 9 9 9 7 5 6 6 5 4 5 4 4 3 5 7 10 9 8 7 5 4 2 0 1 1 2 2 3 3 3 4 10 10 11 11 11 11 11 11
14 12 10 10 10 8 6 6 3 3 3 4 5 5 4 3 3 3 2 4 4 5 3 2 2 0 0 0 0 1 2 2 2 2 4 10 10 11 12 11 12 12 11
14 14 11 11 9 7 7 5 4 3 3 3 4 5 4 2 3 3 2 2 2 1 2 1 1 1 0 1 2 3 3 2 2 2 4 11 11 12 12 12 12 12 12
12 12 12 11 10 8 7 5 5 4 4 4 3 4 4 3 4 3 2 2 2 2 2 2 2 1 1 1 1 3 4 4 4 4 3 10 11 11 12 13 13 13 12
12 12 11 12 10 9 7 6 5 5 4 3 3 4 5 4 4 3 3 2 2 2 2 2 2 2 1 1 1 2 3 4 4 4 3 6 11 11 12 12 13 13 13
10 11 10 10 9 9 8 7 6 5 5 4 3 4 4 4 4 4 3 2 2 2 2 2 1 1 1 1 0 1 2 3 4 5 4 3 4 9 11 12 12 12 13
10 10 9 10 9 8 7 6 5 5 5 4 3 3 4 5 5 3 3 2 2 2 2 2 1 1 1 0 0 1 1 2 3 4 4 4 3 4 8 12 12 12 12
11 11 9 9 9 8 7 6 5 5 5 4 3 3 4 4 5 4 2 2 3 3 2 1 1 1 1 0 1 1 1 1 2 3 3 4 4 3 3 7 10 10 12
10 10 10 9 8 7 6 5 4 5 4 3 3 4 4 4 4 4 3 2 3 3 2 1 1 1 1 0 1 1 1 1 1 1 2 2 3 4 4 4 4 5 9
9 10 9 9 8 6 5 5 4 4 3 3 3 5 5 4 4 4 3 3 3 3 2 2 1 2 1 1 2 2 3 2 0 1 1 1 2 2 3 4 3 2 3
9 9 9 9 8 7 5 4 3 4 3 3 3 4 5 5 5 5 4 3 3 3 3 3 2 2 2 2 2 2 3 4 4 2 1 1 1 1 2 3 3 3 3
10 10 9 8 8 6 6 4 4 4 3 3 3 2 3 5 5 5 5 4 4 3 3 3 3 3 2 2 2 3 3 1 2 3 2 1 1 1 1 1 2 3 3
10 9 8 8 7 6 7 7 8 6 4 4 3 3 3 5 5 5 5 5 4 3 4 3 4 3 3 2 2 2 2 3 2 2 4 3 3 1 2 1 1 2 2
10 9 8 8 7 6 6 7 7 5 4 3 3 5 4 3 4 5 5 5 5 4 4 4 4 4 3 3 2 2 3 3 2 3 1 4 4 3 2 1 1 1 1
9 9 9 9 7 7 7 7 8 8 7 7 5 5 3 3 3 5 6 5 4 4 4 4 4 4 3 3 3 2 2 2 1 2 1 1 2 3 3 2 1 1 1
Wind_Direction
150 151 145 139 133 129 125 120 116 113 110 108 107 107 106 105 105 104 103 103 103 102 101 100 99 99 100 101 102 104 106 107 107 106 105 106 109 112 112 111 109 106 109
147 150 145 141 137 133 129 125 122 119 116 114 112 111 110 109 108 107 106 105 104 103 102 100 100 100 101 101 102 105 108 109 108 106 103 103 107 111 112 112 111 115 114
143 146 144 142 139 135 132 130 127 125 122 120 119 117 115 113 112 111 109 108 107 106 104 103 102 101 100 99 100 103 107 110 110 109 104 95 101 108 112 115 115 116 115
142 144 145 143 140 138 136 134 132 129 127 126 124 122 120 118 116 115 113 113 112 110 108 105 103 102 100 98 97 99 102 108 115 113 105 102 107 113 114 116 117 118 118
139 142 147 144 142 141 139 137 135 133 132 130 128 125 124 122 120 118 117 116 115 113 111 109 105 103 100 97 94 93 92 99 111 107 102 99 103 118 118 118 118 118 119
138 142 147 144 144 142 141 140 138 137 136 134 132 130 128 126 125 123 122 121 118 116 114 111 108 104 100 94 90 87 87 90 102 105 110 112 111 122 122 121 120 119 119
140 144 146 145 145 145 143 142 140 140 139 138 136 135 134 132 130 129 127 126 124 122 120 116 112 106 100 92 83 76 79 95 106 110 115 119 125 129 127 125 124 124 122
144 144 146 147 147 146 145 144 144 144 143 141 140 139 139 138 136 134 133 132 131 130 128 124 119 110 100 87 75 70 79 95 118 125 122 126 136 137 133 131 129 130 130
143 143 144 148 149 149 148 148 148 148 147 145 144 143 143 143 143 142 141 139 139 138 137 134 128 119 104 83 67 71 84 98 117 127 139 139 146 145 141 139 138 138 137
143 144 144 146 145 145 149 152 152 152 152 150 150 150 151 151 151 150 149 150 150 151 150 149 145 135 109 74 58 71 84 96 116 131 131 156 157 152 150 147 147 146 145
150 150 150 152 147 144 149 157 156 156 157 156 156 158 154 148 151 156 161 161 160 162 164 166 168 169 171 3 23 74 86 97 123 140 153 167 165 160 158 156 155 154 152
160 162 160 158 155 155 159 151 153 155 155 155 159 157 150 152 165 170 174 171 170 172 177 182 190 202 259 355 3 62 99 125 136 158 176 172 170 168 167 165 163 161 160
162 161 163 163 164 164 152 152 156 149 153 161 164 163 158 153 160 160 160 174 174 178 177 188 194 200 195 246 120 118 139 144 153 173 184 178 177 177 175 174 172 171 169
162 161 165 166 163 160 150 159 160 159 165 167 169 165 155 150 154 153 155 163 166 162 169 172 175 201 191 125 127 128 137 147 173 170 193 188 187 186 182 182 182 181 179
163 160 164 165 164 158 151 163 160 161 164 164 156 155 154 152 153 148 149 156 164 166 171 174 182 178 163 140 121 133 148 159 169 180 196 200 195 194 190 188 189 191 189
165 160 162 161 159 153 154 154 152 154 149 145 141 147 146 143 140 139 141 147 158 166 167 167 170 157 160 129 122 151 163 172 183 191 199 210 207 200 199 197 195 197 197
160 154 154 153 150 148 149 148 146 146 143 142 143 140 133 129 134 138 138 145 157 151 136 124 121 107 106 105 138 193 172 182 191 193 197 206 212 211 208 208 207 204 203
150 150 156 153 145 144 140 136 139 140 137 138 137 127 126 128 132 128 130 139 135 119 117 118 107 94 79 60 287 265 212 197 197 197 197 202 205 212 215 214 213 211 210
154 152 148 143 145 145 137 131 128 130 132 136 130 121 122 124 125 122 122 122 116 102 97 118 95 121 133 279 266 254 248 219 206 201 198 205 206 210 212 223 218 214 216
149 146 144 142 144 142 133 118 111 112 123 127 126 127 122 120 121 118 115 104 105 98 89 87 91 94 137 220 306 342 302 269 213 203 209 207 209 214 209 219 223 226 224
145 146 152 148 149 146 138 133 131 132 135 130 133 132 126 122 118 113 110 101 98 104 110 106 94 64 26 48 56 7 350 353 323 247 224 203 212 211 198 204 209 218 234
155 158 158 155 154 152 148 145 140 133 136 133 124 119 125 121 119 117 112 106 98 96 81 72 79 78 22 52 104 79 17 357 350 347 326 210 225 214 212 208 198 204 224
159 162 161 159 154 151 145 128 117 99 91 91 107 114 123 122 116 111 110 104 99 103 99 82 81 94 67 21 72 125 121 203 319 340 358 12 3 14 297 252 214 214 215
165 162 155 153 151 151 146 142 144 143 145 163 154 139 127 123 122 115 110 106 105 102 99 88 82 88 94 55 23 45 117 153 128 357 343 352 1 359 319 299 265 238 225
160 158 155 149 150 152 149 148 146 142 144 144 132 128 118 115 120 116 110 107 106 100 98 87 82 80 87 93 65 45 52 50 72 113 3 335 343 330 318 291 285 280 247
157 156 155 151 155 155 153 152 149 148 147 144 144 141 132 114 106 112 111 109 109 106 103 98 94 91 87 87 78 70 84 84 71 103 120 318 320 312 328 337 339 321 301